Jaffrey, NH

9:52 PM EST on February 19, 2018 (GMT -0500)
Jaffrey Airport-Silver Ranch

Weather History for KAFN - August, 2013

Change the Weather History Date:

Saturday, August 17, 2013

  Actual Average Record
Temperature  
Mean Temperature 63 °F -  
Max Temperature 79 °F 76 °F 88 °F (2015)
Min Temperature 48 °F 55 °F 48 °F (2013)
Degree Days  
Heating Degree Days 2    
Growing Degree Days 13 (Base 50)    
Moisture  
Dew Point 52 °F    
Average Humidity 71    
Maximum Humidity 97    
Minimum Humidity 37    
Precipitation  
Precipitation 0.01 in - - ()
Sea Level Pressure  
Sea Level Pressure 30.29 in    
Wind  
Wind Speed 0 mph (ESE)    
Max Wind Speed 5 mph    
Max Gust Speed -    
Visibility 10 miles    
Events      
Averages and records for this station are not official NWS values.
T = Trace of Precipitation, MM = Missing Value Source: NWS Daily Summary

Daily Weather History Graph

Daily Weather History Graph

Search for Another Location

Airport or City:

Trip Planner

Search our weather history database for the weather conditions in past years. The results will help you decide how hot, cold, wet, or windy it might be!

Date:

Astronomy

Aug. 17, 2013 Rise Set
Actual Time 5:56 AM EDT 7:46 PM EDT
Civil Twilight 5:26 AM EDT 8:16 PM EDT
Nautical Twilight 4:49 AM EDT 8:53 PM EDT
Astronomical Twilight 4:09 AM EDT 9:33 PM EDT
Moon 5:01 PM EDT (8/17) 1:53 AM EDT (8/17)
Length of Visible Light 14h 50m
Length of Day
13h 49m
Waxing Gibbous, 84% of the Moon is Illuminated
Aug 17
Waxing Gibbous
Aug 20
Full
Aug 28
Last Quarter
Sep 5
New
Sep 12
First Quarter

Hourly Weather History & Observations

Time (EDT) Temp. Dew Point Humidity Pressure Visibility Wind Dir Wind Speed Gust Speed Precip Events Conditions
12:52 AM 52.0 °F 50.0 °F 93% 30.25 in 10.0 mi Calm Calm - N/A   Clear
1:52 AM 51.1 °F 48.9 °F 92% 30.26 in 10.0 mi Calm Calm - N/A   Clear
2:52 AM 50.0 °F 48.9 °F 96% 30.27 in 10.0 mi Calm Calm - N/A   Clear
3:52 AM 50.0 °F 48.0 °F 93% 30.27 in 8.0 mi Calm Calm - 0.01 in   Clear
4:52 AM 48.9 °F 46.9 °F 93% 30.27 in 8.0 mi Calm Calm - N/A   Clear
5:52 AM 48.0 °F 46.9 °F 96% 30.29 in 8.0 mi Calm Calm - N/A   Clear
6:52 AM 48.9 °F 48.0 °F 97% 30.30 in 8.0 mi Calm Calm - N/A   Clear
7:52 AM 55.0 °F 52.0 °F 89% 30.31 in 10.0 mi Calm Calm - N/A   Clear
8:52 AM 64.0 °F 54.0 °F 70% 30.31 in 10.0 mi Calm Calm - N/A   Clear
9:52 AM 69.1 °F 55.9 °F 63% 30.31 in 10.0 mi East 3.5 mph - N/A   Clear
10:52 AM 72.0 °F 53.1 °F 51% 30.32 in 10.0 mi Calm Calm - N/A   Clear
11:52 AM 75.0 °F 52.0 °F 44% 30.31 in 10.0 mi Calm Calm - N/A   Clear
12:52 PM 75.0 °F 51.1 °F 43% 30.30 in 10.0 mi SE 3.5 mph - N/A   Partly Cloudy
1:52 PM 77.0 °F 51.1 °F 40% 30.30 in 10.0 mi Variable 4.6 mph - N/A   Mostly Cloudy
2:52 PM 75.9 °F 53.1 °F 45% 30.29 in 10.0 mi Variable 3.5 mph - N/A   Overcast
3:52 PM 78.1 °F 53.1 °F 42% 30.27 in 10.0 mi Calm Calm - N/A   Mostly Cloudy
4:52 PM 78.1 °F 51.1 °F 39% 30.27 in 10.0 mi Calm Calm - N/A   Mostly Cloudy
5:52 PM 78.1 °F 50.0 °F 37% 30.28 in 10.0 mi Calm Calm - N/A   Partly Cloudy
6:52 PM 73.0 °F 57.0 °F 57% 30.29 in 10.0 mi Calm Calm - N/A   Clear
7:52 PM 66.9 °F 57.9 °F 73% 30.30 in 10.0 mi Calm Calm - N/A   Clear
8:52 PM 62.1 °F 57.9 °F 86% 30.30 in 10.0 mi Calm Calm - N/A   Partly Cloudy
9:52 PM 62.1 °F 57.9 °F 86% 30.30 in 10.0 mi Calm Calm - N/A   Partly Cloudy
10:52 PM 60.1 °F 57.0 °F 90% 30.31 in 9.0 mi Calm Calm - N/A   Clear
11:52 PM 57.9 °F 55.9 °F 93% 30.31 in 8.0 mi Calm Calm - N/A   Scattered Clouds